WB6DHP Weather Reports


Display with metric or nautical units.
time (UTC)temp
F
wind
direction
speed
MPH
gust
MPH
rain 1hr
in
rain 24hr
in
rain mn
in
humidity
%
barometer
mb
20180122162008 50 106 1.0 8.0 0.00 0.00 0.00 87 1025.9
20180122161010 50 117 2.0 7.0 0.00 0.00 0.00 87 1025.9
20180122160009 50 76 1.0 6.0 0.00 0.00 0.00 87 1025.9
20180122155008 50 123 1.0 9.0 0.00 0.00 0.00 86 1025.8
20180122154008 50 90 3.0 8.0 0.00 0.00 0.00 86 1025.8
20180122153011 50 150 1.0 8.0 0.00 0.00 0.00 86 1025.7
20180122152009 50 85 1.0 8.0 0.00 0.00 0.00 86 1025.7
20180122151008 50 96 2.0 8.0 0.00 0.00 0.00 86 1025.7
20180122150010 50 162 2.0 7.0 0.00 0.00 0.00 85 1025.5
20180122145008 50 107 2.0 7.0 0.00 0.00 0.00 86 1025.7
20180122144011 51 116 2.0 6.0 0.00 0.00 0.00 86 1025.7
20180122143008 51 96 2.0 7.0 0.00 0.00 0.00 86 1025.8
20180122142008 51 92 2.0 3.0 0.00 0.00 0.00 88 1025.8
20180122141009 50 128 0.0 3.0 0.00 0.00 0.00 87 1025.9
20180122140008 51 111 3.0 7.0 0.00 0.00 0.00 85 1025.9
20180122135008 51 119 1.0 6.0 0.00 0.00 0.00 87 1025.9
20180122134010 52 123 1.0 7.0 0.00 0.00 0.00 86 1025.9
20180122133010 52 121 2.0 6.0 0.00 0.00 0.00 87 1026.0
20180122132009 51 126 1.0 8.0 0.00 0.00 0.00 87 1025.9
20180122131009 51 99 1.0 8.0 0.00 0.00 0.00 87 1025.9
20180122130008 51 162 1.0 6.0 0.00 0.00 0.00 87 1025.9
20180122125008 51 114 2.0 8.0 0.00 0.00 0.00 87 1026.0
20180122124009 51 198 2.0 6.0 0.00 0.00 0.00 87 1026.0
20180122123008 51 150 0.0 6.0 0.00 0.00 0.00 87 1026.1
20180122122010 51 99 1.0 3.0 0.00 0.00 0.00 86 1026.1
20180122121010 52 99 2.0 3.0 0.00 0.00 0.00 86 1026.1
20180122120009 51 103 1.0 5.0 0.00 0.00 0.00 87 1026.2
20180122115008 51 130 1.0 3.0 0.00 0.00 0.00 88 1026.2
20180122114008 51 148 1.0 6.0 0.00 0.00 0.00 88 1026.3
20180122113008 50 150 1.0 2.0 0.00 0.00 0.00 87 1026.4
20180122112008 50 106 1.0 3.0 0.00 0.00 0.00 86 1026.5
20180122111009 50 141 1.0 3.0 0.00 0.00 0.00 86 1026.6
20180122110008 50 112 1.0 3.0 0.00 0.00 0.00 86 1026.7
20180122105010 50 158 0.0 3.0 0.00 0.00 0.00 86 1026.8
20180122104010 51 97 1.0 3.0 0.00 0.00 0.00 86 1026.8
20180122103008 50 84 1.0 6.0 0.00 0.00 0.00 85 1027.0
20180122102009 50 122 2.0 6.0 0.00 0.00 0.00 85 1026.9
20180122101009 51 92 1.0 6.0 0.00 0.00 0.00 84 1026.9
20180122100009 51 109 2.0 3.0 0.00 0.00 0.00 83 1026.9
20180122095008 52 94 2.0 6.0 0.00 0.00 0.00 81 1026.9
20180122094007 52 98 2.0 6.0 0.00 0.00 0.00 82 1026.9
20180122093008 52 119 1.0 6.0 0.00 0.00 0.00 82 1026.9
20180122092008 52 135 0.0 3.0 0.00 0.00 0.00 79 1027.0
20180122091008 52 90 0.0 3.0 0.00 0.00 0.00 79 1026.9
20180122090007 51 88 2.0 3.0 0.00 0.00 0.00 79 1027.1
20180122085010 51 88 2.0 6.0 0.00 0.00 0.00 78 1027.1
20180122084009 52 102 2.0 3.0 0.00 0.00 0.00 78 1027.2
20180122083010 52 130 0.0 3.0 0.00 0.00 0.00 78 1027.2
20180122082008 52 128 0.0 5.0 0.00 0.00 0.00 79 1027.3
20180122081008 52 133 1.0 6.0 0.00 0.00 0.00 79 1027.3
20180122080008 51 123 1.0 5.0 0.00 0.00 0.00 80 1027.4
20180122075009 51 144 0.0 5.0 0.00 0.00 0.00 81 1027.3
20180122074008 50 107 0.0 0.0 0.00 0.00 0.00 81 1027.4
20180122073008 50 107 0.0 0.0 0.00 0.00 0.00 80 1027.4
20180122072009 50 107 0.0 0.0 0.00 0.00 0.00 81 1027.5
20180122071008 50 39 0.0 0.0 0.00 0.00 0.00 81 1027.6
20180122070007 49 39 0.0 0.0 0.00 0.00 0.00 82 1027.7
20180122065008 49 39 0.0 0.0 0.00 0.00 0.00 83 1027.6
20180122064008 49 39 0.0 0.0 0.00 0.00 0.00 84 1027.6
20180122063007 49 39 0.0 0.0 0.00 0.00 0.00 84 1027.7
20180122062009 49 39 0.0 0.0 0.00 0.00 0.00 84 1027.7
20180122061008 49 39 0.0 0.0 0.00 0.00 0.00 84 1027.6
20180122060007 49 39 0.0 0.0 0.00 0.00 0.00 83 1027.6
20180122055008 49 39 0.0 0.0 0.00 0.00 0.00 83 1027.4
20180122054008 49 39 0.0 0.0 0.00 0.00 0.00 83 1027.4
20180122053010 49 39 0.0 0.0 0.00 0.00 0.00 83 1027.5
20180122052010 48 39 0.0 0.0 0.00 0.00 0.00 83 1027.6
20180122051008 49 38 0.0 0.0 0.00 0.00 0.00 82 1027.5
20180122050008 49 38 0.0 0.0 0.00 0.00 0.00 82 1027.4
20180122045008 49 38 0.0 0.0 0.00 0.00 0.00 81 1027.3
20180122044008 49 38 0.0 0.0 0.00 0.00 0.00 81 1027.3
20180122043008 49 38 0.0 0.0 0.00 0.00 0.00 81 1027.2
20180122042008 49 38 0.0 0.0 0.00 0.00 0.00 80 1027.1
20180122041008 50 38 0.0 0.0 0.00 0.00 0.00 80 1027.0
20180122040007 50 38 0.0 0.0 0.00 0.00 0.00 79 1026.9
20180122035008 50 38 0.0 0.0 0.00 0.00 0.00 79 1026.9
20180122034008 50 36 0.0 0.0 0.00 0.00 0.00 78 1027.0
20180122033008 51 36 0.0 0.0 0.00 0.00 0.00 78 1026.9
20180122032008 51 36 0.0 0.0 0.00 0.00 0.00 78 1026.9
20180122031008 51 36 0.0 0.0 0.00 0.00 0.00 78 1026.9
20180122030007 51 36 0.0 0.0 0.00 0.00 0.00 77 1027.0
20180122025007 51 36 0.0 0.0 0.00 0.00 0.00 77 1027.0
20180122024010 52 36 0.0 2.0 0.00 0.00 0.00 76 1027.2
20180122023007 52 36 0.0 0.0 0.00 0.00 0.00 76 1027.1
20180122022008 52 36 0.0 0.0 0.00 0.00 0.00 75 1027.2
20180122021008 53 36 0.0 0.0 0.00 0.00 0.00 73 1027.2
20180122020008 53 36 0.0 0.0 0.00 0.00 0.00 71 1027.0
20180122015008 54 36 0.0 0.0 0.00 0.00 0.00 69 1027.0
20180122014008 55 36 0.0 1.0 0.00 0.00 0.00 67 1026.9
20180122013009 56 36 0.0 1.0 0.00 0.00 0.00 66 1026.9
20180122012008 56 36 0.0 1.0 0.00 0.00 0.00 63 1027.0
20180122011007 57 36 0.0 0.0 0.00 0.00 0.00 63 1027.0
20180122010006 58 36 0.0 0.0 0.00 0.00 0.00 63 1027.0
20180122005007 58 36 0.0 0.0 0.00 0.00 0.00 60 1026.9
20180122004007 59 36 0.0 1.0 0.00 0.00 0.00 58 1026.9
20180122003007 59 36 0.0 2.0 0.00 0.00 0.00 58 1026.8
20180122002007 59 36 0.0 1.0 0.00 0.00 0.00 57 1026.7
20180122001009 59 36 1.0 3.0 0.00 0.00 0.00 56 1026.7
20180122000008 59 88 0.0 0.0 0.00 0.00 0.00 56 1026.7
20180121235009 60 88 0.0 0.0 0.00 0.00 0.00 55 1026.7
20180121234009 60 88 0.0 3.0 0.00 0.00 0.00 54 1026.6
20180121233009 60 67 0.0 3.0 0.00 0.00 0.00 56 1026.6
20180121232007 60 300 0.0 3.0 0.00 0.00 0.00 54 1026.7
20180121231007 60 5 1.0 3.0 0.00 0.00 0.00 54 1026.7
20180121230007 60 5 1.0 8.0 0.00 0.00 0.00 55 1026.6
20180121225006 60 33 1.0 7.0 0.00 0.00 0.00 54 1026.7
20180121224007 61 328 3.0 5.0 0.00 0.00 0.00 53 1026.6
20180121223007 61 21 1.0 8.0 0.00 0.00 0.00 52 1026.7
20180121222007 61 0 3.0 6.0 0.00 0.00 0.00 52 1026.6
20180121221008 61 79 2.0 5.0 0.00 0.00 0.00 51 1026.7
20180121220007 60 74 1.0 3.0 0.00 0.00 0.00 52 1026.7
20180121215008 60 57 3.0 6.0 0.00 0.00 0.00 51 1026.7
20180121214008 60 62 3.0 5.0 0.00 0.00 0.00 51 1026.7
20180121213007 60 92 2.0 5.0 0.00 0.00 0.00 51 1026.9
20180121212007 60 319 2.0 3.0 0.00 0.00 0.00 52 1026.9
20180121211007 60 14 2.0 3.0 0.00 0.00 0.00 52 1027.1
20180121210007 60 128 1.0 5.0 0.00 0.00 0.00 50 1027.1
20180121205009 60 212 2.0 5.0 0.00 0.00 0.00 50 1027.1
20180121204009 60 184 1.0 5.0 0.00 0.00 0.00 53 1027.3
20180121203009 59 146 1.0 6.0 0.00 0.00 0.00 53 1027.2
20180121202007 59 133 2.0 6.0 0.00 0.00 0.00 54 1027.2
20180121201007 58 49 3.0 7.0 0.00 0.00 0.00 54 1027.4
20180121200007 58 105 3.0 5.0 0.00 0.00 0.00 56 1027.4
20180121195007 58 94 2.0 7.0 0.00 0.00 0.00 56 1027.8
20180121194007 58 52 3.0 5.0 0.00 0.00 0.00 56 1028.1
20180121193007 57 89 1.0 6.0 0.00 0.00 0.00 59 1028.3
20180121192009 57 20 3.0 6.0 0.00 0.00 0.00 60 1028.5
20180121191007 56 59 1.0 6.0 0.00 0.00 0.00 61 1028.6
20180121190007 56 71 2.0 3.0 0.00 0.00 0.00 62 1028.6
20180121185008 56 66 2.0 5.0 0.00 0.00 0.00 62 1028.7
20180121184007 55 105 1.0 3.0 0.00 0.00 0.00 64 1028.7
20180121183009 54 88 2.0 3.0 0.00 0.00 0.00 66 1028.7
20180121182008 53 80 0.0 3.0 0.00 0.00 0.00 69 1028.7
20180121181009 52 102 1.0 3.0 0.00 0.00 0.00 69 1028.6
20180121180008 52 94 1.0 3.0 0.00 0.00 0.00 71 1028.4
20180121175008 51 91 2.0 3.0 0.00 0.00 0.00 72 1028.3
20180121174006 50 113 0.0 0.0 0.00 0.00 0.00 76 1028.1
20180121173007 48 119 0.0 0.0 0.00 0.00 0.00 79 1028.1
20180121172008 47 172 0.0 0.0 0.00 0.00 0.00 84 1028.1
20180121171007 46 173 0.0 0.0 0.00 0.00 0.00 87 1028.0
20180121170006 44 173 0.0 0.0 0.00 0.00 0.00 88 1027.9
20180121165006 42 215 0.0 0.0 0.00 0.00 0.00 80 1027.8
20180121164006 41 225 0.0 0.0 0.00 0.00 0.00 78 1027.7
20180121163007 39 225 0.0 0.0 0.00 0.00 0.00 79 1027.5